ROBIN1 KISM-KLAL

Flight info

Callsign ROBIN1
Flight time 0h 29m
Altitude VFR
Route
Aircraft DR40/L-DOV/C

Departure

Time 2026-04-21 23:22
Airport Kissimmee Gateway Airport (KISM)

Arrival

Time 2026-04-21 23:52
Airport Lakeland Linder International Airport (KLAL)
Time Latitude Longitude Altitude Speed Heading
2026-04-21 23:16 28.29088 -81.43453 77 ft 0 kts 266°
2026-04-21 23:18 28.29080 -81.43480 78 ft 12 kts 235°
2026-04-21 23:18 28.29046 -81.43542 78 ft 23 kts 237°
2026-04-21 23:18 28.29010 -81.43615 78 ft 27 kts 252°
2026-04-21 23:18 28.29040 -81.43631 78 ft 17 kts 330°
2026-04-21 23:19 28.29126 -81.43691 78 ft 22 kts 330°
2026-04-21 23:19 28.29227 -81.43762 78 ft 26 kts 326°
2026-04-21 23:19 28.29334 -81.43839 78 ft 27 kts 331°
2026-04-21 23:19 28.29450 -81.43920 76 ft 29 kts 329°
2026-04-21 23:20 28.29579 -81.43994 75 ft 17 kts 11°
2026-04-21 23:20 28.29609 -81.44006 75 ft 0 kts 240°
2026-04-21 23:21 28.29611 -81.44032 75 ft 9 kts 319°
2026-04-21 23:21 28.29656 -81.44072 75 ft 13 kts 301°
2026-04-21 23:21 28.29623 -81.44147 75 ft 15 kts 219°
2026-04-21 23:21 28.29534 -81.44103 76 ft 41 kts 148°
2026-04-21 23:22 28.29243 -81.43905 197 ft 70 kts 141°
2026-04-21 23:22 28.28906 -81.43702 445 ft 76 kts 146°
2026-04-21 23:22 28.28542 -81.43587 669 ft 85 kts 169°
2026-04-21 23:22 28.28190 -81.43591 931 ft 82 kts 171°
2026-04-21 23:23 28.28081 -81.43596 1006 ft 82 kts 173°
2026-04-21 23:23 28.27739 -81.43604 1103 ft 94 kts 173°
2026-04-21 23:23 28.27380 -81.43606 1186 ft 101 kts 172°
2026-04-21 23:23 28.27005 -81.43626 1294 ft 106 kts 182°
2026-04-21 23:24 28.26727 -81.43736 1371 ft 113 kts 198°
2026-04-21 23:24 28.26499 -81.43919 1437 ft 118 kts 214°
2026-04-21 23:24 28.26304 -81.44178 1506 ft 122 kts 229°
2026-04-21 23:24 28.26168 -81.44494 1571 ft 125 kts 244°
2026-04-21 23:25 28.26096 -81.44957 1657 ft 130 kts 264°
2026-04-21 23:25 28.26098 -81.45437 1751 ft 130 kts 266°
2026-04-21 23:25 28.26102 -81.45836 1828 ft 130 kts 266°
2026-04-21 23:25 28.26105 -81.46262 1909 ft 131 kts 266°
2026-04-21 23:26 28.26115 -81.46896 1976 ft 131 kts 267°
2026-04-21 23:26 28.26124 -81.47642 1984 ft 134 kts 267°
2026-04-21 23:26 28.26129 -81.48277 1989 ft 136 kts 266°
2026-04-21 23:26 28.26137 -81.49065 1988 ft 137 kts 268°
2026-04-21 23:27 28.26143 -81.49753 1985 ft 138 kts 267°
2026-04-21 23:27 28.26150 -81.50279 1982 ft 139 kts 268°
2026-04-21 23:27 28.26155 -81.50892 1984 ft 140 kts 267°
2026-04-21 23:27 28.26113 -81.51608 1982 ft 139 kts 255°
2026-04-21 23:28 28.26016 -81.52164 1986 ft 139 kts 257°
2026-04-21 23:28 28.25921 -81.52795 1986 ft 139 kts 255°
2026-04-21 23:28 28.25776 -81.53780 1987 ft 140 kts 255°
2026-04-21 23:28 28.25670 -81.54491 1986 ft 140 kts 256°
2026-04-21 23:29 28.25468 -81.55233 1987 ft 138 kts 245°
2026-04-21 23:29 28.25244 -81.55918 1986 ft 138 kts 244°
2026-04-21 23:29 28.25051 -81.56483 1985 ft 138 kts 244°
2026-04-21 23:29 28.24751 -81.57359 1983 ft 138 kts 244°
2026-04-21 23:30 28.24457 -81.58215 1983 ft 138 kts 244°
2026-04-21 23:30 28.24196 -81.58972 1982 ft 138 kts 244°
2026-04-21 23:30 28.23895 -81.59847 1983 ft 138 kts 244°
2026-04-21 23:30 28.23546 -81.60866 1983 ft 138 kts 244°
2026-04-21 23:31 28.23189 -81.61903 1983 ft 138 kts 244°
2026-04-21 23:31 28.22835 -81.62939 1983 ft 139 kts 244°
2026-04-21 23:31 28.22528 -81.63824 1983 ft 139 kts 244°
2026-04-21 23:31 28.22325 -81.64412 1983 ft 139 kts 244°
2026-04-21 23:32 28.22137 -81.64960 1983 ft 139 kts 245°
2026-04-21 23:32 28.21928 -81.65567 1981 ft 139 kts 245°
2026-04-21 23:32 28.21624 -81.66450 1982 ft 139 kts 245°
2026-04-21 23:32 28.21381 -81.67158 1982 ft 140 kts 245°
2026-04-21 23:33 28.21028 -81.68160 1981 ft 140 kts 248°
2026-04-21 23:33 28.20639 -81.69264 1983 ft 140 kts 250°
2026-04-21 23:33 28.20380 -81.70035 1982 ft 139 kts 251°
2026-04-21 23:33 28.20020 -81.71096 1982 ft 139 kts 250°
2026-04-21 23:34 28.19732 -81.71938 1982 ft 139 kts 250°
2026-04-21 23:34 28.19510 -81.72583 1982 ft 139 kts 250°
2026-04-21 23:34 28.19275 -81.73267 1982 ft 138 kts 250°
2026-04-21 23:34 28.19016 -81.74021 1982 ft 138 kts 250°
2026-04-21 23:35 28.18781 -81.74703 1982 ft 138 kts 250°
2026-04-21 23:35 28.18613 -81.75190 1982 ft 138 kts 250°
2026-04-21 23:35 28.18371 -81.75890 1982 ft 138 kts 250°
2026-04-21 23:35 28.18100 -81.76673 1970 ft 117 kts 251°
2026-04-21 23:36 28.17911 -81.77216 1964 ft 97 kts 251°
2026-04-21 23:36 28.17792 -81.77558 1968 ft 91 kts 251°
2026-04-21 23:36 28.17698 -81.77831 1970 ft 87 kts 252°
2026-04-21 23:36 28.17570 -81.78201 1970 ft 83 kts 252°
2026-04-21 23:37 28.17427 -81.78619 1996 ft 102 kts 251°
2026-04-21 23:37 28.17265 -81.79097 1940 ft 122 kts 251°
2026-04-21 23:37 28.17088 -81.79613 1871 ft 132 kts 250°
2026-04-21 23:37 28.16904 -81.80146 1791 ft 132 kts 250°
2026-04-21 23:38 28.16710 -81.80540 1718 ft 129 kts 232°
2026-04-21 23:38 28.16470 -81.80801 1659 ft 127 kts 215°
2026-04-21 23:38 28.16000 -81.81091 1562 ft 122 kts 202°
2026-04-21 23:38 28.15468 -81.81365 1473 ft 135 kts 201°
2026-04-21 23:39 28.14969 -81.81609 1416 ft 143 kts 200°
2026-04-21 23:39 28.14361 -81.81904 1374 ft 147 kts 200°
2026-04-21 23:39 28.13726 -81.82207 1327 ft 149 kts 200°
2026-04-21 23:39 28.13007 -81.82549 1270 ft 148 kts 200°
2026-04-21 23:40 28.12362 -81.82863 1215 ft 146 kts 203°
2026-04-21 23:40 28.11933 -81.83241 1181 ft 141 kts 229°
2026-04-21 23:40 28.11677 -81.83723 1180 ft 140 kts 245°
2026-04-21 23:40 28.11532 -81.84071 1181 ft 140 kts 245°
2026-04-21 23:41 28.11375 -81.84462 1181 ft 140 kts 246°
2026-04-21 23:41 28.11215 -81.84869 1181 ft 141 kts 246°
2026-04-21 23:41 28.11054 -81.85278 1182 ft 141 kts 246°
2026-04-21 23:41 28.10898 -81.85674 1180 ft 142 kts 246°
2026-04-21 23:42 28.10699 -81.86180 1181 ft 142 kts 246°
2026-04-21 23:42 28.10475 -81.86746 1182 ft 144 kts 246°
2026-04-21 23:42 28.10293 -81.87207 1184 ft 146 kts 246°
2026-04-21 23:42 28.10121 -81.87641 1182 ft 142 kts 246°
2026-04-21 23:43 28.09974 -81.88014 1176 ft 135 kts 246°
2026-04-21 23:43 28.09846 -81.88335 1173 ft 131 kts 246°
2026-04-21 23:43 28.09656 -81.88811 1174 ft 130 kts 246°
2026-04-21 23:43 28.09532 -81.89125 1178 ft 131 kts 246°
2026-04-21 23:44 28.09233 -81.89879 1179 ft 134 kts 246°
2026-04-21 23:44 28.09032 -81.90395 1180 ft 136 kts 244°
2026-04-21 23:44 28.08727 -81.91180 1176 ft 137 kts 242°
2026-04-21 23:44 28.08452 -81.91869 1178 ft 137 kts 242°
2026-04-21 23:45 28.08078 -81.92662 1167 ft 134 kts 229°
2026-04-21 23:45 28.07258 -81.94038 1266 ft 124 kts 235°
2026-04-21 23:45 28.07061 -81.94740 1311 ft 124 kts 262°
2026-04-21 23:46 28.07128 -81.95552 1303 ft 126 kts 277°
2026-04-21 23:46 28.07224 -81.96272 1286 ft 127 kts 279°
2026-04-21 23:46 28.07302 -81.97114 1254 ft 128 kts 273°
2026-04-21 23:46 28.07231 -81.97908 1233 ft 125 kts 251°
2026-04-21 23:47 28.07002 -81.98631 1242 ft 123 kts 246°
2026-04-21 23:47 28.06748 -81.99285 1138 ft 125 kts 235°
2026-04-21 23:47 28.06397 -81.99902 1130 ft 123 kts 231°
2026-04-21 23:47 28.05937 -82.00649 1113 ft 126 kts 228°
2026-04-21 23:48 28.05433 -82.01047 1146 ft 114 kts 188°
2026-04-21 23:48 28.04803 -82.01229 1155 ft 120 kts 187°
2026-04-21 23:48 28.03924 -82.01434 1132 ft 125 kts 183°
2026-04-21 23:48 28.02989 -82.01598 1144 ft 127 kts 181°
2026-04-21 23:49 28.02109 -82.01717 1216 ft 126 kts 179°
2026-04-21 23:49 28.01486 -82.01802 1271 ft 123 kts 184°
2026-04-21 23:49 28.00836 -82.01925 1097 ft 119 kts 182°
2026-04-21 23:49 28.00423 -82.02524 1014 ft 127 kts 262°
2026-04-21 23:50 28.00351 -82.03296 1028 ft 122 kts 262°
2026-04-21 23:50 28.00267 -82.04029 901 ft 106 kts 259°
2026-04-21 23:50 28.00069 -82.04460 888 ft 86 kts 205°
2026-04-21 23:50 27.99641 -82.04501 756 ft 82 kts 158°
2026-04-21 23:51 27.99247 -82.04243 529 ft 88 kts 128°
2026-04-21 23:51 27.99059 -82.03794 411 ft 73 kts 99°
2026-04-21 23:51 27.99031 -82.03329 335 ft 75 kts 90°
2026-04-21 23:51 27.99035 -82.02856 262 ft 75 kts 90°
2026-04-21 23:52 27.99034 -82.02343 229 ft 62 kts 89°
2026-04-21 23:52 27.99037 -82.01948 148 ft 50 kts 87°
2026-04-21 23:52 27.99035 -82.01620 131 ft 39 kts 90°
2026-04-21 23:52 27.99038 -82.01432 132 ft 29 kts 88°
2026-04-21 23:53 27.99042 -82.01234 134 ft 29 kts 90°
2026-04-21 23:53 27.99039 -82.00996 137 ft 39 kts 89°
2026-04-21 23:53 27.99038 -82.00839 135 ft 28 kts 99°
2026-04-21 23:53 27.98946 -82.00768 134 ft 22 kts 175°
2026-04-21 23:54 27.98837 -82.00758 134 ft 24 kts 182°
2026-04-21 23:54 27.98731 -82.00794 134 ft 14 kts 289°
2026-04-21 23:54 27.98736 -82.00871 134 ft 17 kts 266°
2026-04-21 23:54 27.98731 -82.00935 134 ft 20 kts 276°
2026-04-21 23:55 27.98731 -82.01017 134 ft 23 kts 268°
2026-04-21 23:55 27.98696 -82.01101 133 ft 22 kts 185°
2026-04-21 23:55 27.98590 -82.01104 131 ft 24 kts 179°
2026-04-21 23:55 27.98490 -82.01105 131 ft 24 kts 178°
2026-04-21 23:56 27.98374 -82.01110 131 ft 24 kts 189°
2026-04-21 23:56 27.98371 -82.01221 131 ft 16 kts
2026-04-21 23:56 27.98382 -82.01241 131 ft 0 kts 190°
2026-04-21 23:56 27.98352 -82.01241 131 ft 7 kts 172°
2026-04-21 23:57 27.98348 -82.01240 131 ft 0 kts 171°
2026-04-22 00:30 27.98338 -82.01245 131 ft 4 kts 234°
2026-04-22 00:31 27.98334 -82.01270 131 ft 14 kts 266°
2026-04-22 00:31 27.98332 -82.01363 131 ft 24 kts 268°
2026-04-22 00:31 27.98332 -82.01475 131 ft 26 kts 269°
2026-04-22 00:31 27.98330 -82.01608 129 ft 29 kts 268°
2026-04-22 00:32 27.98327 -82.01737 127 ft 30 kts 271°
2026-04-22 00:32 27.98327 -82.01880 127 ft 30 kts 268°